Погода в Ястарне

Польша     54°42′04″N   18°40′12″E
темп.,
°C
ветер,
м/с
пор.,
м/с
влажн.,
%
обл.,
%
осадки,
мм/ч
давл.,
гПа
погр.,
м
1 марта, пн
пн101:00+4з56900 0.0 103291
04:00+4з56900 0.0 103290
07:00+4з56891 0.0 1032121
10:00+4зюз56870 0.0 1032108
13:00+6з56810 0.0 103249
16:00+7з710770 0.0 1030104
19:00+5з915760 0.0 1030261
22:00+5з1016830 0.0 1029294
2 марта, вт
вт201:00+5з1016840 0.0 1030288
04:00+5з1017860 0.0 1028391
07:00+4зсз11169031 0.0 1029379
10:00+4зсз10149127 0.0 1029350
13:00+4сз8109214 0.0 1031227
16:00+4сз66910 0.0 1031105
19:00+4с44840 0.0 103241
22:00+4в34783 0.0 103329
3 марта, ср
ср301:00+4юв337651 0.0 103327
04:00+4ю447747 0.0 103272
07:00+4ююз567546 0.0 1031131
10:00+4ююз567652 0.0 1029148
13:00+5ююз448055 0.0 102739
16:00+5сз348428 0.0 102328
19:00+6зюз448214 0.0 102125
22:00+5зюз55830 0.0 101859
4 марта, чт
чт401:00+5з69850 0.0 1015155
04:00+4з8119182 0.0 1013286
07:00+4зсз7109091 0.0 1012461
10:00+3сз4589100 0.1 1013267
13:00+2св8887100 0.1 1013441
16:00+2св8876100 0.0 1013764
19:00+2св8868100 0.0 10141044
22:00+2св8970100 0.1 10141183
5 марта, пт
пт501:00+2св7768100 0.1 10141093
04:00+2св776752 0.1 10141178
07:00+2ссв676047 0.1 10151375
10:00+1ссв997226 0.5 1017986
13:00+1ссв776345 0.6 10181261
16:00+1ссз896092 0.3 10191297
19:00+1с9106296 0.9 10211392
22:00+1с101059100 0.6 10231467